Weather History for Thomson, GA

Change the Weather History Date:

Sunday, November 18, 2012

  Actual Average (KDBN) Record (KDBN)
Temperature  
Mean Temperature 54 °F -  
Max Temperature 61 °F 67 °F 87 °F (2013)
Min Temperature 46 °F 41 °F 24 °F (1970)
Degree Days  
Heating Degree Days 12    
Growing Degree Days 4 (Base 50)    
Moisture  
Dew Point 41 °F    
Average Humidity 68    
Maximum Humidity 93    
Minimum Humidity 48    
Precipitation  
Precipitation 0.00 in - - ()
Sea Level Pressure  
Sea Level Pressure 30.38 in    
Wind  
Wind Speed 9 mph (NNE)    
Max Wind Speed 16 mph    
Max Gust Speed 23 mph    
Visibility 10 miles    
Events      
Averages and records for this station are not official NWS values.
T = Trace of Precipitation, MM = Missing Value Source: NWS Daily Summary

Daily Weather History Graph

Daily Weather History Graph

Search for Another Location

Airport:

Trip Planner

Search our weather history database for the weather conditions in past years. The results will help you decide how hot, cold, wet, or windy it might be!

Date:

Astronomy

Nov. 18, 2012 Rise Set
Actual Time 7:04 AM EST 5:25 PM EST
Civil Twilight 6:38 AM EST 5:52 PM EST
Nautical Twilight 6:08 AM EST 6:22 PM EST
Astronomical Twilight 5:38 AM EST 6:51 PM EST
Moon 11:33 AM EST (11/18) 10:39 PM EST (11/18)
Length of Visible Light 11h 13m
Length of Day
10h 20m
Waxing Crescent, 30% of the Moon is Illuminated
Nov 18
Waxing Crescent
Nov 20
First Quarter
Nov 28
Full
Dec 6
Last Quarter
Dec 13
New

Hourly Weather History & Observations

Time (EST) Temp. Windchill Dew Point Humidity Pressure Visibility Wind Dir Wind Speed Gust Speed Precip Events Conditions
12:15 AM 50.9 °F - 32.0 °F 48% 30.41 in 10.0 mi NE 9.2 mph - N/A   Overcast
12:35 AM 50.9 °F - 32.0 °F 48% 30.41 in 10.0 mi NE 10.4 mph 16.1 mph N/A   Overcast
12:55 AM 50.9 °F - 32.0 °F 48% 30.40 in 10.0 mi ENE 8.1 mph - N/A   Overcast
1:15 AM 50.2 °F - 32.7 °F 51% 30.39 in 10.0 mi NE 6.9 mph - N/A   Overcast
1:35 AM 50.0 °F - 32.9 °F 52% 30.39 in 10.0 mi NE 6.9 mph - N/A   Overcast
1:55 AM 49.8 °F - 33.6 °F 54% 30.39 in 10.0 mi NNE 9.2 mph - N/A   Overcast
2:15 AM 50.0 °F - 34.2 °F 55% 30.38 in 10.0 mi NE 9.2 mph - N/A   Overcast
2:35 AM 50.0 °F - 34.2 °F 55% 30.39 in 10.0 mi NNE 9.2 mph - N/A   Overcast
2:55 AM 49.6 °F - 34.7 °F 56% 30.39 in 10.0 mi NNE 8.1 mph - N/A   Overcast
3:15 AM 49.6 °F - 34.5 °F 56% 30.39 in 10.0 mi NNE 11.5 mph - N/A   Overcast
3:35 AM 49.6 °F - 34.7 °F 56% 30.39 in 10.0 mi NNE 5.8 mph - N/A   Overcast
3:55 AM 49.3 °F - 34.5 °F 57% 30.39 in 10.0 mi NE 10.4 mph 17.3 mph N/A   Overcast
4:15 AM 49.1 °F - 35.1 °F 58% 30.39 in 10.0 mi NNE 9.2 mph 16.1 mph N/A   Overcast
4:35 AM 49.1 °F - 35.6 °F 60% 30.40 in 10.0 mi NNE 12.7 mph 19.6 mph N/A   Overcast
4:55 AM 48.9 °F - 36.5 °F 62% 30.40 in 10.0 mi NE 10.4 mph 18.4 mph N/A   Overcast
5:15 AM 48.7 °F - 37.0 °F 64% 30.40 in 10.0 mi NNE 10.4 mph 16.1 mph N/A   Overcast
5:35 AM 48.6 °F - 37.4 °F 65% 30.41 in 10.0 mi NNE 9.2 mph - N/A   Overcast
5:55 AM 48.4 °F - 37.0 °F 65% 30.41 in 10.0 mi NNE 8.1 mph - N/A   Overcast
6:15 AM 48.0 °F - 36.9 °F 65% 30.41 in 10.0 mi NNE 9.2 mph 16.1 mph N/A   Overcast
6:35 AM 47.7 °F - 36.9 °F 66% 30.41 in 10.0 mi North 6.9 mph - N/A   Overcast
6:55 AM 47.3 °F - 37.2 °F 68% 30.41 in 10.0 mi NNE 10.4 mph 17.3 mph N/A   Overcast
7:15 AM 46.9 °F - 36.5 °F 67% 30.41 in 10.0 mi North 6.9 mph - N/A   Overcast
7:35 AM 46.4 °F 42.9 °F 36.5 °F 68% 30.42 in 10.0 mi NNE 6.9 mph 18.4 mph N/A   Mostly Cloudy
7:55 AM 46.6 °F - 36.9 °F 69% 30.43 in 10.0 mi NNE 9.2 mph - N/A   Overcast
8:15 AM 46.9 °F - 37.4 °F 69% 30.43 in 10.0 mi NNE 10.4 mph 16.1 mph N/A   Overcast
8:35 AM 47.7 °F - 37.9 °F 69% 30.44 in 10.0 mi NNE 11.5 mph 19.6 mph N/A   Overcast
8:55 AM 47.7 °F - 38.1 °F 70% 30.44 in 10.0 mi NNE 12.7 mph 20.7 mph N/A   Overcast
9:15 AM 48.9 °F - 38.8 °F 68% 30.44 in 10.0 mi NE 10.4 mph 20.7 mph N/A   Overcast
9:35 AM 49.8 °F - 39.6 °F 68% 30.43 in 10.0 mi NNE 16.1 mph 23.0 mph N/A   Overcast
9:55 AM 50.9 °F - 40.6 °F 68% 30.44 in 10.0 mi NNE 12.7 mph 19.6 mph N/A   Mostly Cloudy
10:15 AM 50.9 °F - 41.2 °F 69% 30.44 in 10.0 mi NE 12.7 mph 21.9 mph N/A   Overcast
10:35 AM 51.3 °F - 41.9 °F 70% 30.43 in 10.0 mi NNE 10.4 mph 17.3 mph N/A   Overcast
10:55 AM 51.6 °F - 41.9 °F 69% 30.42 in 10.0 mi NE 12.7 mph 17.3 mph N/A   Overcast
11:15 AM 52.9 °F - 42.4 °F 68% 30.42 in 10.0 mi NNE 10.4 mph - N/A   Overcast
11:35 AM 52.9 °F - 42.4 °F 68% 30.40 in 10.0 mi NNE 13.8 mph - N/A   Overcast
11:55 AM 54.1 °F - 43.0 °F 66% 30.39 in 10.0 mi NNE 11.5 mph 17.3 mph N/A   Overcast
12:15 PM 56.7 °F - 44.2 °F 63% 30.38 in 10.0 mi NE 11.5 mph 16.1 mph N/A   Overcast
12:35 PM 55.4 °F - 43.9 °F 65% 30.38 in 10.0 mi North 9.2 mph - N/A   Mostly Cloudy
12:55 PM 56.5 °F - 44.6 °F 64% 30.37 in 10.0 mi North 10.4 mph 16.1 mph N/A   Overcast
1:15 PM 56.3 °F - 45.3 °F 67% 30.36 in 10.0 mi NNE 9.2 mph - N/A   Overcast
1:35 PM 56.3 °F - 45.5 °F 67% 30.36 in 10.0 mi NNE 5.8 mph - N/A   Overcast
1:55 PM 57.4 °F - 45.9 °F 65% 30.35 in 10.0 mi NE 8.1 mph - N/A   Overcast
2:15 PM 57.7 °F - 45.9 °F 65% 30.34 in 10.0 mi NNE 6.9 mph - N/A   Overcast
2:35 PM 59.9 °F - 46.4 °F 61% 30.34 in 10.0 mi North 3.5 mph - N/A   Overcast
2:55 PM 59.7 °F - 46.6 °F 62% 30.34 in 10.0 mi NNW 8.1 mph - N/A   Overcast
3:15 PM 60.6 °F - 46.9 °F 61% 30.33 in 10.0 mi North 6.9 mph - N/A   Scattered Clouds
3:35 PM 61.3 °F - 47.3 °F 60% 30.33 in 10.0 mi NNE 10.4 mph - N/A   Scattered Clouds
3:55 PM 61.0 °F - 47.1 °F 60% 30.33 in 10.0 mi NNE 5.8 mph - N/A   Clear
4:15 PM 61.2 °F - 47.5 °F 61% 30.33 in 10.0 mi NNE 6.9 mph - N/A   Clear
4:35 PM 60.8 °F - 46.9 °F 60% 30.33 in 10.0 mi NNE 10.4 mph 16.1 mph N/A   Clear
4:55 PM 59.9 °F - 46.0 °F 60% 30.33 in 10.0 mi NNE 6.9 mph - N/A   Clear
5:15 PM 58.1 °F - 46.0 °F 64% 30.32 in 10.0 mi North 4.6 mph - N/A   Clear
5:35 PM 55.4 °F - 46.0 °F 71% 30.32 in 10.0 mi NNE 3.5 mph - N/A   Clear
5:55 PM 52.7 °F - 45.9 °F 78% 30.33 in 10.0 mi North 4.6 mph - N/A   Clear
6:15 PM 50.5 °F - 45.9 °F 84% 30.34 in 10.0 mi NNE 4.6 mph - N/A   Clear
6:35 PM 49.6 °F - 45.5 °F 86% 30.34 in 10.0 mi North 4.6 mph - N/A   Clear
6:55 PM 47.8 °F - 45.0 °F 90% 30.34 in 10.0 mi North 3.5 mph - N/A   Clear
7:15 PM 47.3 °F - 45.0 °F 92% 30.34 in 10.0 mi North 4.6 mph - N/A   Clear
7:35 PM 47.1 °F - 44.8 °F 92% 30.34 in 10.0 mi North 3.5 mph - N/A   Clear
7:55 PM 46.9 °F - 45.0 °F 93% 30.35 in 10.0 mi NNW 3.5 mph - N/A   Mostly Cloudy
8:15 PM 48.4 °F - 46.2 °F 92% 30.36 in 10.0 mi NNW 3.5 mph - N/A   Overcast
8:35 PM 49.8 °F - 46.8 °F 89% 30.36 in 10.0 mi North 5.8 mph - N/A   Overcast
8:55 PM 52.9 °F - 45.9 °F 77% 30.36 in 10.0 mi North 6.9 mph - N/A   Overcast
9:15 PM 52.3 °F - 46.0 °F 79% 30.36 in 10.0 mi NNW 4.6 mph - N/A   Overcast
9:35 PM 52.9 °F - 45.7 °F 77% 30.36 in 10.0 mi North 4.6 mph - N/A   Overcast
9:55 PM 52.5 °F - 45.3 °F 76% 30.35 in 10.0 mi NNE 5.8 mph - N/A   Overcast
10:15 PM 52.0 °F - 45.0 °F 77% 30.35 in 10.0 mi North 4.6 mph - N/A   Mostly Cloudy
10:35 PM 51.3 °F - 44.6 °F 78% 30.35 in 10.0 mi North 3.5 mph - N/A   Mostly Cloudy
10:55 PM 51.1 °F - 44.8 °F 79% 30.34 in 10.0 mi North 4.6 mph - N/A   Mostly Cloudy
11:35 PM 49.8 °F - 43.9 °F 80% 30.33 in 10.0 mi NNE 6.9 mph - N/A   Clear
11:55 PM 51.3 °F - 44.2 °F 77% 30.34 in 10.0 mi NNE 5.8 mph - N/A   Scattered Clouds